Regional Weather Roundup
Issued by NWS

Current Version | Previous Version | Text Only | Print | Product List | Glossary On
Versions: 1 2 3 4 5 6 7 8 9 10 11 12 13 14 15 16 17 18 19 20 21 22 23 24 25 26 27 28 29 30 31 32 33 34 35 36 37 38 39 40 41 42 43 44 45 46 47 48 49 50
000
ASUS44 KJAN 240810
RWRMS

MISSISSIPPI HOURLY WEATHER ROUNDUP
NATIONAL WEATHER SERVICE JACKSON MS
200 AM CST WED JAN 24 2018

NOTE: "FAIR: INDICATES FEW OR NO CLOUDS BELOW 12,000 FEET WITH NO
SIGNIFICANT WEATHER AND/OR OBSTRUCTIONS TO VISIBILITY.

MSZ001>002-007>008-010>013-018>021-025>028-034>036-240900-
NORTHWEST MISSISSIPPI

CITY           SKY/WX    TMP DP  RH WIND       PRES   REMARKS
BATESVILLE     FAIR      27  25  92 CALM      30.32S
CLARKSDALE     CLEAR     34  34 100 CALM      30.33R
CLEVELAND      FAIR      34  34 100 CALM      30.32R
GREENWOOD      FAIR      32  30  92 NE3       30.31R
GREENVILLE     FAIR      32  30  92 CALM      30.31R
TUNICA           N/A     32  32 100 W3        30.33S
WINONA         FAIR      29  29 100 CALM      30.30S
$$

MSZ003>006-009-014>017-022>024-029>033-037>039-240900-
NORTHEAST MISSISSIPPI

CITY           SKY/WX    TMP DP  RH WIND       PRES   REMARKS
ABERDEEN         N/A     28  28 100 CALM      30.31S
COLUMBUS AFB   FAIR      29  29  99 CALM      30.30R
CORINTH        FAIR      28  27  93 CALM      30.29S
GOLDN TRIANGLE FAIR      30  27  88 W5        30.31R WCI  25
STARKVILLE     FAIR      30  28  93 CALM      30.32R
TUPELO         FAIR      29  26  89 CALM      30.31R
$$

MSZ040-058-240900-
CENTRAL MISSISSIPPI

CITY           SKY/WX    TMP DP  RH WIND       PRES   REMARKS
JACKSON INTL   FAIR      33  32  96 CALM      30.29R
JACKSON HAWKNS FAIR      35  32  88 CALM      30.30R
MADISON        FAIR      32  32 100 CALM      30.29R
MERIDIAN KEY   FAIR      35  31  85 N7        30.29R WCI  29
MERIDIAN NAS   FAIR      35  30  82 N6        30.29S WCI  30
RAYMOND          N/A     32  32 100 CALM      30.30R
VICKSBURG VKS  SUNNY     32  30  93 CALM      30.32R
$$

MSZ059>079-240900-
SOUTH MISSISSIPPI

CITY           SKY/WX    TMP DP  RH WIND       PRES   REMARKS
HATTIESBURG    FAIR      36  33  89 NW3       30.29R
LAUREL         FAIR      37  33  86 N3        30.29S
MCCOMB         FAIR      43  29  57 N6        30.28S
NATCHEZ        FAIR      31  28  89 CALM      30.32R
PINE BELT      FAIR      40  34  79 N6        30.28R
$$

MSZ080>082-240900-
COASTAL MISSISSIPPI

CITY           SKY/WX    TMP DP  RH WIND       PRES   REMARKS
BILOXI         NOT AVBL
PASCAGOULA     FAIR      42  34  73 N5        30.27R
GULFPORT       FAIR      44  32  62 N6        30.27R
$$

LAZ007>009-015>016-023>026-240900-
NORTHEAST LOUISIANA

CITY           SKY/WX    TMP DP  RH WIND       PRES   REMARKS
BASTROP        FAIR      33  29  82 CALM      30.33R
TALLULAH/VBURG FAIR      30  29  96 W5        30.32R WCI  25
VIDALIA          N/A    N/A N/A N/A MISG      30.32R
$$



USA.gov is the U.S. government's official web portal to all federal, state and local government web resources and services.